GW1159 Weather Reports


time (UTC)temp
C
wind
direction
speed
KPH
gust
KPH
rain 1hr
cm
rain 24hr
cm
rain mn
cm
humidity
%
barometer
mb
20260906103551 30 345 3.2 9.7 0.00 0.00 0.00 58 1022.2
20260906103101 30 27 3.2 14.5 0.00 0.00 0.00 59 1022.2
20260906102553 30 34 4.8 14.5 0.00 0.00 0.00 59 1022.2
20260906102050 30 354 3.2 14.5 0.00 0.00 0.00 60 1022.3
20260906101556 30 51 3.2 11.3 0.00 0.00 0.00 61 1022.3
20260906101050 30 102 3.2 11.3 0.00 0.00 0.00 59 1022.4
20260906100551 30 44 4.8 14.5 0.00 0.00 0.00 60 1022.3
20260906100059 30 312 1.6 14.5 0.00 0.00 0.00 62 1022.3
20260906095550 30 65 4.8 12.9 0.00 0.00 0.00 62 1022.4
20260906095050 29 330 3.2 9.7 0.00 0.00 0.00 68 1022.4
20260906094601 29 343 3.2 9.7 0.00 0.00 0.00 68 1022.4
20260906094051 29 245 4.8 9.7 0.00 0.00 0.00 68 1022.4
20260906093551 29 350 3.2 8.0 0.00 0.00 0.00 68 1022.4
20260906093058 29 261 1.6 8.0 0.00 0.00 0.00 67 1022.5
20260906092549 29 302 3.2 8.0 0.00 0.00 0.00 67 1022.5
20260906092052 29 280 1.6 8.0 0.00 0.00 0.00 67 1022.4
20260906091601 28 249 3.2 8.0 0.00 0.00 0.00 67 1022.5
20260906091051 28 314 1.6 8.0 0.00 0.00 0.00 67 1022.5
20260906090550 28 332 1.6 8.0 0.00 0.00 0.00 67 1022.4
20260906085551 28 73 3.2 8.0 0.00 0.00 0.00 65 1022.4
20260906085051 28 311 1.6 6.4 0.00 0.00 0.00 65 1022.4
20260906084602 28 0 0.0 6.4 0.00 0.00 0.00 66 1022.3
20260906084053 28 317 3.2 6.4 0.00 0.00 0.00 65 1022.4
20260906083551 28 347 0.0 4.8 0.00 0.00 0.00 66 1022.4
20260906083059 27 0 0.0 4.8 0.00 0.00 0.00 69 1022.4
20260906082550 27 337 0.0 4.8 0.00 0.00 0.00 69 1022.4
20260906082111 27 36 0.0 4.8 0.00 0.00 0.00 70 1022.4
20260906081603 27 0 0.0 4.8 0.00 0.00 0.00 71 1022.4
20260906081050 27 338 0.0 3.2 0.00 0.00 0.00 69 1022.4
20260906080547 26 359 0.0 3.2 0.00 0.00 0.00 67 1022.4
20260906080056 27 56 0.0 3.2 0.00 0.00 0.00 66 1022.3
20260906075546 27 342 0.0 3.2 0.00 0.00 0.00 64 1022.3
20260906075048 26 0 0.0 1.6 0.00 0.00 0.00 66 1022.3
20260906074600 26 141 0.0 3.2 0.00 0.00 0.00 67 1022.3
20260906074047 25 0 0.0 4.8 0.00 0.00 0.00 68 1022.1
20260906073549 25 0 1.6 4.8 0.00 0.00 0.00 68 1022.2
20260906073058 25 99 1.6 4.8 0.00 0.00 0.00 67 1022.1
20260906072547 25 120 0.0 4.8 0.00 0.00 0.00 68 1022.0
20260906072048 24 0 0.0 4.8 0.00 0.00 0.00 70 1022.0
20260906071559 23 0 1.6 8.0 0.00 0.00 0.00 72 1021.9
20260906071047 23 89 3.2 9.7 0.00 0.00 0.00 72 1022.0
20260906070546 23 116 4.8 9.7 0.00 0.00 0.00 71 1021.9
20260906065549 24 96 0.0 3.2 0.00 0.00 0.00 71 1022.2
20260906065047 23 112 0.0 6.4 0.00 0.00 0.00 73 1022.1
20260906064559 23 239 1.6 6.4 0.00 0.00 0.00 73 1022.1
20260906064046 23 93 0.0 6.4 0.00 0.00 0.00 73 1022.1
20260906063546 23 124 0.0 6.4 0.00 0.00 0.00 75 1022.0
20260906063100 22 86 0.0 6.4 0.00 0.00 0.00 76 1022.0
20260906062548 22 0 0.0 1.6 0.00 0.00 0.00 77 1022.0
20260906062048 22 0 0.0 4.8 0.00 0.00 0.00 78 1022.0
20260906061613 21 0 0.0 6.4 0.00 0.00 0.00 79 1021.9
20260906061046 21 108 1.6 8.0 0.00 0.00 0.00 80 1021.9
20260906060547 21 150 1.6 9.7 0.00 0.00 0.00 80 1021.8
20260906060059 21 117 3.2 9.7 0.00 0.00 0.00 81 1021.8
20260906055546 21 89 0.0 3.2 0.00 0.00 0.00 81 1021.7
20260906055049 20 0 0.0 3.2 0.00 0.00 0.00 82 1021.7
20260906054601 20 0 0.0 6.4 0.00 0.00 0.00 82 1021.6
20260906054047 20 0 0.0 6.4 0.00 0.00 0.00 81 1021.6
20260906053547 20 82 1.6 6.4 0.00 0.00 0.00 80 1021.6
20260906053057 20 0 0.0 8.0 0.00 0.00 0.00 80 1021.6
20260906052547 20 165 1.6 8.0 0.00 0.00 0.00 80 1021.5
20260906052047 20 132 0.0 4.8 0.00 0.00 0.00 80 1021.5
20260906051606 20 0 0.0 4.8 0.00 0.00 0.00 81 1021.4
20260906051046 20 117 0.0 3.2 0.00 0.00 0.00 82 1021.4
20260906050549 20 114 0.0 1.6 0.00 0.00 0.00 83 1021.4
20260906050053 20 0 0.0 1.6 0.00 0.00 0.00 84 1021.4
20260906045546 20 0 0.0 1.6 0.00 0.00 0.00 84 1021.5
20260906045047 20 0 0.0 1.6 0.00 0.00 0.00 84 1021.4
20260906044556 20 0 0.0 1.6 0.00 0.00 0.00 84 1021.2
20260906044051 20 0 0.0 1.6 0.00 0.00 0.00 83 1021.3
20260906043547 20 0 0.0 3.2 0.00 0.00 0.00 83 1021.2
20260906043059 20 0 0.0 3.2 0.00 0.00 0.00 83 1021.2
20260906042547 20 105 0.0 4.8 0.00 0.00 0.00 83 1021.2
20260906042047 20 84 0.0 4.8 0.00 0.00 0.00 83 1021.1
20260906041557 20 0 0.0 3.2 0.00 0.00 0.00 83 1021.0
20260906041047 20 0 1.6 4.8 0.00 0.00 0.00 83 1020.9
20260906040547 20 0 0.0 4.8 0.00 0.00 0.00 83 1020.8
20260906040103 20 100 1.6 4.8 0.00 0.00 0.00 83 1020.7
20260906035549 20 0 0.0 0.0 0.00 0.00 0.00 82 1020.7
20260906035049 20 0 0.0 0.0 0.00 0.00 0.00 82 1020.6
20260906034604 20 0 0.0 1.6 0.00 0.00 0.00 82 1020.6
20260906034049 20 0 0.0 1.6 0.00 0.00 0.00 82 1020.6
20260906033547 20 0 0.0 1.6 0.00 0.00 0.00 82 1020.6
20260906033057 20 0 0.0 1.6 0.00 0.00 0.00 82 1020.6
20260906032547 20 0 0.0 1.6 0.00 0.00 0.00 82 1020.5
20260906032050 20 0 0.0 1.6 0.00 0.00 0.00 83 1020.5
20260906031603 20 0 0.0 1.6 0.00 0.00 0.00 82 1020.5
20260906031046 20 0 0.0 1.6 0.00 0.00 0.00 82 1020.4
20260906030547 20 295 0.0 1.6 0.00 0.00 0.00 82 1020.3
20260906030101 20 0 0.0 1.6 0.00 0.00 0.00 82 1020.3
20260906025549 20 0 0.0 1.6 0.00 0.00 0.00 82 1020.2
20260906025049 20 0 0.0 1.6 0.00 0.00 0.00 81 1020.3
20260906024601 20 0 0.0 0.0 0.00 0.00 0.00 82 1020.3
20260906024051 20 0 0.0 0.0 0.00 0.00 0.00 81 1020.3
20260906023549 20 39 0.0 0.0 0.00 0.00 0.00 81 1020.2
20260906023110 20 0 0.0 0.0 0.00 0.00 0.00 80 1020.2
20260906022548 20 0 0.0 0.0 0.00 0.00 0.00 80 1020.0
20260906022048 21 0 0.0 1.6 0.00 0.00 0.00 80 1020.1
20260906021604 21 0 0.0 1.6 0.00 0.00 0.00 79 1020.0
20260906021047 21 0 0.0 0.0 0.00 0.00 0.00 79 1020.0
20260906020546 21 0 0.0 3.2 0.00 0.00 0.00 78 1020.0
20260906015549 21 0 0.0 3.2 0.00 0.00 0.00 78 1019.8
20260906015049 21 0 0.0 3.2 0.00 0.00 0.00 78 1019.8
20260906014606 21 0 0.0 3.2 0.00 0.00 0.00 78 1019.8
20260906014048 21 154 0.0 1.6 0.00 0.00 0.00 77 1019.8
20260906013549 21 0 0.0 3.2 0.00 0.00 0.00 77 1019.8
20260906013056 22 0 0.0 3.2 0.00 0.00 0.00 77 1019.7
20260906012547 21 0 0.0 3.2 0.00 0.00 0.00 77 1019.7
20260906012046 21 0 0.0 1.6 0.00 0.00 0.00 78 1019.8
20260906011607 22 0 0.0 1.6 0.00 0.00 0.00 77 1019.7
20260906011050 22 96 0.0 1.6 0.00 0.00 0.00 77 1019.7
20260906010549 22 101 0.0 1.6 0.00 0.00 0.00 77 1019.7
20260906010108 22 132 0.0 1.6 0.00 0.00 0.00 76 1019.6
20260906005549 22 0 0.0 0.0 0.00 0.00 0.00 75 1019.6
20260906005052 22 0 0.0 0.0 0.00 0.00 0.00 74 1019.6
20260906004602 22 326 0.0 0.0 0.00 0.00 0.00 74 1019.7
20260906004046 22 0 0.0 0.0 0.00 0.00 0.00 74 1019.6
20260906003546 22 0 0.0 0.0 0.00 0.00 0.00 74 1019.6
20260906003101 22 0 0.0 0.0 0.00 0.00 0.00 74 1019.6
20260906002546 22 0 0.0 0.0 0.00 0.00 0.00 73 1019.6
20260906002049 22 0 0.0 0.0 0.00 0.00 0.00 73 1019.5
20260906001559 22 0 0.0 1.6 0.00 0.00 0.00 73 1019.5
20260906001050 22 0 0.0 3.2 0.00 0.00 0.00 72 1019.6
20260906000549 22 0 1.6 3.2 0.00 0.00 0.00 72 1019.6
20260906000101 22 291 0.0 1.6 0.00 0.00 0.00 71 1019.6
20260905235549 23 261 0.0 1.6 0.00 0.00 0.00 70 1019.4
20260905235052 23 0 0.0 1.6 0.00 0.00 0.00 70 1019.4
20260905234600 23 0 0.0 1.6 0.00 0.00 0.00 70 1019.4
20260905234049 23 0 0.0 1.6 0.00 0.00 0.00 70 1019.3
20260905233551 23 0 0.0 1.6 0.00 0.00 0.00 69 1019.3
20260905233057 23 0 0.0 1.6 0.00 0.00 0.00 69 1019.2
20260905232549 24 0 0.0 1.6 0.00 0.00 0.00 68 1019.2
20260905232049 24 0 0.0 1.6 0.00 0.00 0.00 67 1019.2
20260905231559 25 0 0.0 1.6 0.00 0.00 0.00 67 1019.2
20260905231052 25 0 0.0 1.6 0.00 0.00 0.00 66 1019.1
20260905230549 25 236 0.0 1.6 0.00 0.00 0.00 66 1019.2
20260905230104 25 0 0.0 8.0 0.00 0.00 0.00 66 1019.1
20260905225549 25 157 1.6 8.0 0.00 0.00 0.00 65 1019.0
20260905225046 25 179 3.2 9.7 0.00 0.00 0.00 65 1018.9
20260905224604 25 176 1.6 9.7 0.00 0.00 0.00 65 1018.9
20260905224048 25 122 1.6 9.7 0.00 0.00 0.00 65 1018.9
20260905223546 25 229 3.2 9.7 0.00 0.00 0.00 65 1019.0
20260905223101 25 231 1.6 9.7 0.00 0.00 0.00 65 1018.9
20260905222550 25 201 1.6 11.3 0.00 0.00 0.00 64 1018.8
20260905222049 25 239 1.6 11.3 0.00 0.00 0.00 64 1018.8
20260905221602 25 0 1.6 11.3 0.00 0.00 0.00 64 1018.8
20260905221050 25 0 1.6 4.8 0.00 0.00 0.00 64 1018.7
20260905220548 25 0 0.0 1.6 0.00 0.00 0.00 64 1018.5
20260905220057 25 0 0.0 3.2 0.00 0.00 0.00 64 1018.6
20260905215549 25 0 0.0 4.8 0.00 0.00 0.00 64 1018.5
20260905215047 25 148 0.0 8.0 0.00 0.00 0.00 63 1018.5
20260905214613 26 0 1.6 8.0 0.00 0.00 0.00 63 1018.5
20260905214049 26 0 0.0 8.0 0.00 0.00 0.00 62 1018.5
20260905213549 26 177 0.0 11.3 0.00 0.00 0.00 62 1018.5
20260905213116 26 119 0.0 11.3 0.00 0.00 0.00 61 1018.4
20260905212553 26 129 3.2 11.3 0.00 0.00 0.00 61 1018.4
20260905212048 26 248 3.2 9.7 0.00 0.00 0.00 61 1018.4
20260905211611 26 192 0.0 9.7 0.00 0.00 0.00 61 1018.4
20260905211049 26 221 1.6 9.7 0.00 0.00 0.00 61 1018.4
20260905210549 26 200 0.0 4.8 0.00 0.00 0.00 61 1018.3
20260905210112 26 58 0.0 3.2 0.00 0.00 0.00 61 1018.2
20260905205546 26 0 0.0 3.2 0.00 0.00 0.00 61 1018.2
20260905205050 26 0 0.0 6.4 0.00 0.00 0.00 60 1018.2
20260905204606 26 0 0.0 6.4 0.00 0.00 0.00 60 1018.2
20260905204051 26 113 1.6 6.4 0.00 0.00 0.00 60 1018.1
20260905203552 26 146 0.0 4.8 0.00 0.00 0.00 60 1018.1
20260905203107 26 106 0.0 4.8 0.00 0.00 0.00 60 1018.1
20260905202550 26 115 0.0 1.6 0.00 0.00 0.00 60 1018.1
20260905202049 26 0 0.0 1.6 0.00 0.00 0.00 60 1018.1
20260905201603 26 0 0.0 1.6 0.00 0.00 0.00 59 1018.1
20260905201048 26 109 0.0 3.2 0.00 0.00 0.00 59 1018.1
20260905200552 26 114 0.0 3.2 0.00 0.00 0.00 59 1018.1
20260905200104 26 0 0.0 1.6 0.00 0.00 0.00 59 1018.1
20260905195551 26 0 0.0 1.6 0.00 0.00 0.00 59 1018.1
20260905195049 26 0 0.0 1.6 0.00 0.00 0.00 59 1018.0
20260905194558 27 0 0.0 1.6 0.00 0.00 0.00 58 1018.0
20260905194050 27 219 0.0 1.6 0.00 0.00 0.00 58 1017.9
20260905193549 27 0 0.0 1.6 0.00 0.00 0.00 57 1017.9
20260905193057 27 0 0.0 1.6 0.00 0.00 0.00 57 1017.9
20260905192549 27 0 0.0 1.6 0.00 0.00 0.00 56 1017.7
20260905192048 27 0 0.0 1.6 0.00 0.00 0.00 55 1017.7
20260905191555 28 0 0.0 3.2 0.00 0.00 0.00 55 1017.6
20260905191049 28 0 0.0 3.2 0.00 0.00 0.00 54 1017.7
20260905190551 28 83 0.0 4.8 0.00 0.00 0.00 54 1017.6
20260905190103 28 137 0.0 4.8 0.00 0.00 0.00 54 1017.5
20260905185547 28 0 0.0 3.2 0.00 0.00 0.00 53 1017.6
20260905185047 28 0 0.0 3.2 0.00 0.00 0.00 53 1017.3
20260905184610 28 0 0.0 3.2 0.00 0.00 0.00 53 1017.2
20260905184049 28 152 0.0 3.2 0.00 0.00 0.00 52 1017.2
20260905183548 28 0 0.0 3.2 0.00 0.00 0.00 52 1017.2
20260905183115 29 0 0.0 3.2 0.00 0.00 0.00 52 1017.1
20260905182549 29 0 0.0 1.6 0.00 0.00 0.00 51 1017.0
20260905182049 29 0 0.0 1.6 0.00 0.00 0.00 51 1016.9
20260905181556 29 0 0.0 3.2 0.00 0.00 0.00 51 1016.8
20260905181048 30 0 0.0 3.2 0.00 0.00 0.00 51 1016.7
20260905180553 30 146 0.0 1.6 0.00 0.00 0.00 50 1016.6
20260905180108 30 0 0.0 3.2 0.00 0.00 0.00 50 1016.6
20260905175552 30 0 0.0 3.2 0.00 0.00 0.00 50 1016.6
20260905175048 30 0 0.0 4.8 0.00 0.00 0.00 49 1016.6
20260905174559 30 103 0.0 4.8 0.00 0.00 0.00 49 1016.6
20260905174049 31 0 0.0 3.2 0.00 0.00 0.00 49 1016.4
20260905173549 31 297 0.0 6.4 0.00 0.00 0.00 49 1016.4
20260905173106 31 0 1.6 9.7 0.00 0.00 0.00 48 1016.5
20260905172547 31 250 4.8 11.3 0.00 0.00 0.00 48 1016.4
20260905172047 31 211 4.8 11.3 0.00 0.00 0.00 48 1016.3
20260905171602 32 219 0.0 11.3 0.00 0.00 0.00 48 1016.3
20260905171049 32 213 1.6 11.3 0.00 0.00 0.00 48 1016.2
20260905170549 32 212 3.2 16.1 0.00 0.00 0.00 47 1016.2
20260905165549 32 229 4.8 16.1 0.00 0.00 0.00 47 1016.1
20260905165049 32 231 4.8 12.9 0.00 0.00 0.00 46 1016.0
20260905164559 32 231 3.2 12.9 0.00 0.00 0.00 46 1016.0
20260905164049 33 162 4.8 11.3 0.00 0.00 0.00 45 1016.0
20260905163553 33 249 3.2 12.9 0.00 0.00 0.00 45 1016.0
20260905163057 33 216 4.8 14.5 0.00 0.00 0.00 45 1015.9
20260905162551 33 244 4.8 14.5 0.00 0.00 0.00 45 1015.9
20260905162047 33 198 4.8 14.5 0.00 0.00 0.00 44 1015.9
20260905161604 34 41 6.4 12.9 0.00 0.00 0.00 44 1015.9
20260905161050 34 0 3.2 12.9 0.00 0.00 0.00 44 1015.9
20260905160547 34 117 6.4 12.9 0.00 0.00 0.00 43 1015.8
20260905160101 35 144 4.8 9.7 0.00 0.00 0.00 42 1015.9
20260905155547 35 208 3.2 11.3 0.00 0.00 0.00 41 1015.8
20260905155047 35 220 3.2 14.5 0.00 0.00 0.00 40 1015.7
20260905154559 35 124 4.8 14.5 0.00 0.00 0.00 39 1015.7
20260905154046 35 232 3.2 9.7 0.00 0.00 0.00 39 1015.6
20260905153548 35 219 3.2 8.0 0.00 0.00 0.00 38 1015.7
20260905153116 35 0 1.6 4.8 0.00 0.00 0.00 33 1015.6
20260905152550 36 266 1.6 4.8 0.00 0.00 0.00 33 1015.6
20260905152049 36 7 0.0 4.8 0.00 0.00 0.00 32 1015.6
20260905151611 36 352 0.0 6.4 0.00 0.00 0.00 33 1015.6
20260905151048 35 60 1.6 6.4 0.00 0.00 0.00 33 1015.6
20260905150548 35 0 1.6 8.0 0.00 0.00 0.00 33 1015.6
20260905150058 35 359 0.0 8.0 0.00 0.00 0.00 34 1015.6
20260905145548 35 349 1.6 8.0 0.00 0.00 0.00 33 1015.6
20260905145048 35 16 1.6 11.3 0.00 0.00 0.00 33 1015.7
20260905144603 35 44 3.2 11.3 0.00 0.00 0.00 33 1015.8
20260905144048 35 39 3.2 11.3 0.00 0.00 0.00 33 1015.8
20260905143548 35 8 3.2 8.0 0.00 0.00 0.00 33 1015.7
20260905143056 35 360 3.2 8.0 0.00 0.00 0.00 32 1015.8
20260905142549 35 0 0.0 6.4 0.00 0.00 0.00 33 1015.8
20260905142047 35 342 3.2 6.4 0.00 0.00 0.00 33 1015.9
20260905141619 35 359 1.6 6.4 0.00 0.00 0.00 32 1015.9
20260905141052 35 195 1.6 6.4 0.00 0.00 0.00 32 1016.0
20260905140549 35 144 1.6 8.0 0.00 0.00 0.00 32 1015.9
20260905140108 35 78 3.2 9.7 0.00 0.00 0.00 32 1015.9
20260905135550 35 33 3.2 9.7 0.00 0.00 0.00 32 1016.1
20260905135048 35 141 3.2 9.7 0.00 0.00 0.00 32 1016.2
20260905134557 35 163 1.6 9.7 0.00 0.00 0.00 33 1016.2
20260905134050 35 127 4.8 9.7 0.00 0.00 0.00 32 1016.3
20260905133549 35 78 0.0 8.0 0.00 0.00 0.00 32 1016.4
20260905133056 35 356 3.2 8.0 0.00 0.00 0.00 32 1016.5
20260905132549 35 74 1.6 11.3 0.00 0.00 0.00 33 1016.6
20260905132052 35 32 3.2 11.3 0.00 0.00 0.00 32 1016.5
20260905131615 35 42 6.4 11.3 0.00 0.00 0.00 33 1016.7
20260905131049 35 86 3.2 11.3 0.00 0.00 0.00 32 1016.7
20260905130552 35 51 3.2 11.3 0.00 0.00 0.00 33 1016.6
20260905130054 35 0 0.0 11.3 0.00 0.00 0.00 33 1016.7
20260905125549 34 310 3.2 11.3 0.00 0.00 0.00 33 1016.8
20260905125047 34 294 3.2 11.3 0.00 0.00 0.00 33 1016.8
20260905124555 34 67 3.2 9.7 0.00 0.00 0.00 33 1016.9
20260905124049 34 327 3.2 9.7 0.00 0.00 0.00 32 1016.8
20260905123549 34 346 3.2 11.3 0.00 0.00 0.00 34 1017.0
20260905123100 34 27 1.6 11.3 0.00 0.00 0.00 33 1017.0
20260905122549 33 41 4.8 12.9 0.00 0.00 0.00 33 1017.1
20260905122051 33 43 3.2 12.9 0.00 0.00 0.00 33 1017.1
20260905121603 34 329 3.2 12.9 0.00 0.00 0.00 32 1017.1
20260905121050 33 321 3.2 11.3 0.00 0.00 0.00 33 1017.1
20260905120550 33 323 4.8 12.9 0.00 0.00 0.00 32 1017.1
20260905120103 33 356 4.8 14.5 0.00 0.00 0.00 34 1017.1
20260905115550 33 20 6.4 14.5 0.00 0.00 0.00 33 1017.3
20260905115049 33 352 6.4 12.9 0.00 0.00 0.00 32 1017.3
20260905114557 33 328 1.6 12.9 0.00 0.00 0.00 32 1017.2
20260905114049 33 339 4.8 12.9 0.00 0.00 0.00 33 1017.2
20260905113549 33 314 4.8 9.7 0.00 0.00 0.00 34 1017.1
20260905113100 33 3 3.2 9.7 0.00 0.00 0.00 33 1017.1
20260905112549 33 328 4.8 9.7 0.00 0.00 0.00 34 1017.1
20260905112049 33 345 3.2 11.3 0.00 0.00 0.00 34 1017.2
20260905111600 33 319 3.2 11.3 0.00 0.00 0.00 34 1017.3
20260905111050 33 315 1.6 9.7 0.00 0.00 0.00 34 1017.4
20260905110548 32 251 4.8 9.7 0.00 0.00 0.00 34 1017.5
20260905110106 32 349 1.6 9.7 0.00 0.00 0.00 35 1017.4
20260905105550 32 221 1.6 6.4 0.00 0.00 0.00 34 1017.4
20260905105049 32 73 1.6 6.4 0.00 0.00 0.00 35 1017.5
20260905104600 32 333 1.6 8.0 0.00 0.00 0.00 35 1017.7
20260905104050 32 338 1.6 8.0 0.00 0.00 0.00 36 1017.7